{"data":{"norad_id":63481,"epoch":"2026-05-25T04:17:06.804672Z","epoch_age_seconds":59644,"freshness":"FRESH","line1":"1 63481U 25070X   26145.17855098  .00023601  00000+0  86386-3 0  9992","line2":"2 63481  43.0005 184.4085 0001509 275.1028  84.9651 15.27601260 64717","mean_motion":15.2760126,"eccentricity":0.0001509,"inclination_deg":43.0005,"raan_deg":184.4085,"arg_perigee_deg":275.1028,"mean_anomaly_deg":84.9651,"bstar":0.00086386,"rev_number":6471,"period_min":94.265436780276,"perigee_km":481.95009331402,"apogee_km":484.02078006542,"semimajor_km":6861.1224366897,"source":"CELESTRAK","updated_at":"2026-05-25T13:38:20.009734Z"}}